Location: Lane
(33.5226°N, 79.8788°W)
Time: 02:53:05
(UTC+00:00)

Explorer 7 - Pass Details

Date: 12 October 2022
Orbit: 481 x 665 km, 50.3° (Epoch: 01 December)

Event Time Altitude Azimuth Distance (km) Brightness Sun altitude
Rises 18:19:55 0° 316° (NW) 2,988 10.4 45.3°
Reaches altitude 10° 18:22:24 10° 323° (NW) 2,059 9.7 45.1°
Maximum altitude 18:26:57 44° 35° (NE) 885 7.9 44.6°
Drops below altitude 10° 18:31:17 10° 108° (ESE) 1,965 9.6 44.2°
Sets 18:33:36 0° 115° (ESE) 2,836 10.4 43.9°
